Regional Weather Roundup
Issued by NWS

Home | Current Version | Previous Version | Text Only | Print | Product List | Glossary On
Versions: 1 2 3 4 5 6 7 8 9 10 11 12 13 14 15 16 17 18 19 20 21 22 23 24 25 26 27 28 29 30 31 32 33 34 35 36 37 38 39 40 41 42 43 44 45 46 47 48 49 50
000
ASUS43 KOAX 271310
RWRNE

WEATHER ROUNDUP FOR NEBRASKA
NATIONAL WEATHER SERVICE OMAHA NE
800 AM CDT SUN MAY 27 2018

NOTES: SATELLITE DATA IS BEING USED TO AUGMENT CLOUD COVER ABOVE
       12000 FEET.
       "FAIR" INDICATES FEW OR NO CLOUDS BELOW 12,000 FEET WITH NO
       SIGNIFICANT WEATHER AND/OR OBSTRUCTIONS TO VISIBILITY.


NEZ001>004-019>022-054>056-271400-
NEBRASKA PANHANDLE

CITY           SKY/WX    TMP DP  RH WIND       PRES   REMARKS
SCOTTSBLUFF    CLOUDY    68  56  65 W7        29.82R
ALLIANCE       CLOUDY    66  57  72 S10       29.82R
CHADRON        CLOUDY    66  56  70 SE6       29.81R
GORDON         FAIR      71  55  57 W8        29.82R
KIMBALL        CLOUDY    63  52  69 W6        29.89R
SIDNEY         CLOUDY    66  57  72 S8        29.86R
$$

NEZ057>060-069>072-079>082-271400-
SOUTHWEST NEBRASKA

CITY           SKY/WX    TMP DP  RH WIND       PRES   REMARKS
NORTH PLATTE   CLOUDY    71  61  70 SW9G22    29.86R
IMPERIAL       CLOUDY    71  61  70 S22G31    29.84S
LEXINGTON      CLOUDY    72  63  73 S12       29.88R
MCCOOK         CLOUDY    71  64  78 SW7       29.88R
OGALLALA       CLOUDY    71  58  64 CALM      29.84R
$$

NEZ005>010-023>029-035>040-094-271400-
NORTH CENTRAL NEBRASKA

CITY           SKY/WX    TMP DP  RH WIND       PRES   REMARKS
VALENTINE      CLOUDY    73  56  54 SW9       29.79R
AINSWORTH      PTSUNNY   73  60  63 S14       29.81S
BROKEN BOW     PTSUNNY   72  61  68 S7        29.86R
O`NEILL        MOSUNNY   75  60  59 S5        29.83R
ORD            PTSUNNY   73  60  63 SW13      29.83R
THEDFORD       PTSUNNY   72  59  63 S14       29.85R
$$

NEZ041-046>049-061>064-073>077-083>087-271400-
SOUTH CENTRAL NEBRASKA

CITY           SKY/WX    TMP DP  RH WIND       PRES   REMARKS
GRAND ISLAND   SUNNY     75  61  61 SW16      29.86R
AURORA         SUNNY     72  61  68 SW9       29.86S
HASTINGS       SUNNY     72  62  71 S9        29.88R
HEBRON         PTSUNNY   74  64  72 SW3       29.87S
HOLDREGE       PTSUNNY   72  63  72 S13       29.89R
KEARNEY        MOSUNNY   73  62  68 SW12      29.88R
YORK           PTSUNNY   75  63  64 SW10      29.86S
$$

NEZ011>018-030>034-042>045-271400-
NORTHEAST NEBRASKA

CITY           SKY/WX    TMP DP  RH WIND       PRES   REMARKS
NORFOLK        SUNNY     76  61  59 SW5       29.84R
ALBION         MOSUNNY   76  62  61 CALM      29.85R
COLUMBUS       SUNNY     76  62  62 SW7       29.85R
FREMONT        SUNNY     79  62  57 SW6       29.84S
TEKAMAH        SUNNY     77  63  61 SE7       29.82R
WAYNE          SUNNY     73  69  88 S5        29.83R
$$

NEZ050>053-065>068-078-088>093-271400-
SOUTHEAST NEBRASKA

CITY           SKY/WX    TMP DP  RH WIND       PRES   REMARKS
LINCOLN        SUNNY     76  65  68 SW5       29.85R
OMAHA EPPLEY   MOSUNNY   77  64  64 SE7       29.84R
BEATRICE       MOSUNNY   77  67  71 SW6       29.87S
FALLS CITY     SUNNY     79  66  64 W8        29.85R
NEBRASKA CITY  SUNNY     78  66  65 SW7       29.86R
PLATTSMOUTH    SUNNY     78  64  61 SW5       29.86R
$$

NEZ044-045-051>053-067-271400-
OMAHA AREA

CITY           SKY/WX    TMP DP  RH WIND       PRES   REMARKS
OMAHA EPPLEY   MOSUNNY   77  64  64 SE7       29.84R
FREMONT        SUNNY     79  62  57 SW6       29.84S
MILLARD        SUNNY     77  66  67 SE3       29.84R
OFFUTT AFB     SUNNY     76  64  67 CALM      29.84R
PLATTSMOUTH    SUNNY     78  64  61 SW5       29.86R
WAHOO          FAIR      78  60  52 SW8       29.84R
$$




USA.gov is the U.S. government's official web portal to all federal, state and local government web resources and services.